CZ-3C DEB, 44527

Orbit data source: Space-Track

CZ-3C DEB, 44527 is space debris in HEO originally from a launch on Sun, 31 Oct 2010 UTC launched from the Xichang Space Center, China (XSC). Debris objects in space refer to the collection of defunct objects orbiting the Earth. Examples of debris include non-operational satellites, rocket bodies, and fragments generated from explosions, collisions, or faulty payload assembly.

Loading next visibility...
Identifier
44527, 2010-057BM
Orbit
HEO
Country
Flag of CNCN / PRC
Related business
Manufacturer
CALT
Mission
Spacecraft
Bus & Motor
Unknown
Mass
Unknown
Launch date (UTC)
2010-10-31 (15 years ago)
Launch vehicle
Unknown
Launch site
Xichang Space Center, China (XSC)
Object type
Payload
Rocket body
Debris
Shape & HBR
Unknown shape, 0.3 m
Radar Cross Section
Medium (>0.1 m² and <1 m²)

Expand to show TLE details & history
Last TLE update: 4 days ago

TLE from 4 days ago
0 CZ-3C DEB
1 44527U 10057BM  25343.61607759  .00000037  00000-0  10441-2 0  9995
2 44527  19.7576 131.3004 7193697 103.2906 339.3831  2.23730247 74162
Epoch: 2025-12-09T14:47Z
TLE epoch observation values (Epoch: 2025-12-09T14:47:09.103Z)
Latitude
-0.00004°
Longitude
-169.20042°
Altitude
7,903.165 km
Speed
6.299 km/s
True Right ascension
08h 44m 44s
True Declination
0° 00' 00"
Sunlit
Object was in daylight at epoch
Visualization orbit readout
Latitude
Unknown
Longitude
Unknown
Altitude
Unknown
Speed
Unknown
Apparent Right ascension
Unknown
Apparent Declination
Unknown
Sunlit
N/A
Visualization observer readout
Local Sidereal Time
07:32:44
Azimuth
Unknown
Elevation
Unknown
Doppler factor
Unknown
Orbital elements
Apogee altitude
36,086.993 km
Perigee altitude
552.893 km
Semi-major axis
24,698.08 km
Eccentricity
0.71937
Inclination
19.7576°
RAAN
131.3004°
Arg. of periapsis
103.2906°
True anomaly
256.90085°
Mean anomaly
339.3831°
Eccentric anomaly
306.06582°
Mean motion
0.55918 °/min
Orbital period
643.8 mins
BSTAR
0.0010441
Loading maneuver chart data...
Computing Atmospheric mass density...
Loading historical data...
Loading historical data...
Loading historical data...
Loading historical data...
Loading historical data...
Loading historical data...
Loading historical data...

Documentation

Showing up to 5 results
|